Weather History for Greenville Downtown, SC

Change the Weather History Date:

Wednesday, May 9, 2012

  Actual Average Record
Temperature  
Mean Temperature 66 °F -  
Max Temperature 71 °F 76 °F 88 °F (2002)
Min Temperature 61 °F 56 °F 54 °F (1999)
Cooling Degree Days 1    
Growing Degree Days 16 (Base 50)    
Moisture  
Dew Point 62 °F    
Average Humidity 83    
Maximum Humidity 94    
Minimum Humidity 56    
Precipitation  
Precipitation 0.62 in - - ()
Sea Level Pressure  
Sea Level Pressure 29.82 in    
Wind  
Wind Speed 4 mph (North)    
Max Wind Speed 12 mph    
Max Gust Speed 16 mph    
Visibility 8 miles    
Events Fog , Rain , Thunderstorm    
Averages and records for this station are not official NWS values.
T = Trace of Precipitation, MM = Missing Value Source: NWS Daily Summary

Daily Weather History Graph

Daily Weather History Graph

Search for Another Location

Airport:

Trip Planner

Search our weather history database for the weather conditions in past years. The results will help you decide how hot, cold, wet, or windy it might be!

Date:

Astronomy

May. 09, 2012 Rise Set
Actual Time 6:30 AM EDT 8:21 PM EDT
Civil Twilight 6:03 AM EDT 8:49 PM EDT
Nautical Twilight 5:29 AM EDT 9:22 PM EDT
Astronomical Twilight 4:54 AM EDT 9:58 PM EDT
Moon No Moon Rise 9:46 AM EDT (5/9)
Length of Visible Light 14h 46m
Length of Day
13h 50m
Waning Gibbous, 83% of the Moon is Illuminated
May 9
Waning Gibbous
May 12
Last Quarter
May 20
New
May 28
First Quarter
Jun 4
Full

Hourly Weather History & Observations

Time (EDT) Temp. Dew Point Humidity Pressure Visibility Wind Dir Wind Speed Gust Speed Precip Events Conditions
12:15 AM 68.0 °F 62.6 °F 83% 29.91 in 10.0 mi East 4.6 mph - 0.00 in Rain , Thunderstorm Light Rain
12:22 AM 68.0 °F 62.6 °F 83% 29.91 in 10.0 mi East 4.6 mph - 0.00 in Rain Light Rain
12:49 AM 68.0 °F 62.6 °F 83% 29.91 in 10.0 mi NE 4.6 mph - 0.00 in   Overcast
12:53 AM 68.0 °F 63.0 °F 84% 29.89 in 10.0 mi ENE 6.9 mph - 0.00 in   Overcast
1:53 AM 68.0 °F 64.0 °F 87% 29.87 in 10.0 mi ESE 3.5 mph - N/A   Overcast
2:33 AM 68.0 °F 62.6 °F 83% 29.88 in 10.0 mi East 4.6 mph - N/A   Overcast
2:53 AM 68.0 °F 63.0 °F 84% 29.86 in 10.0 mi ESE 5.8 mph - N/A   Overcast
3:39 AM 66.2 °F 62.6 °F 88% 29.87 in 10.0 mi Calm Calm - N/A   Overcast
3:53 AM 68.0 °F 63.0 °F 84% 29.84 in 10.0 mi Calm Calm - N/A   Overcast
4:31 AM 66.2 °F 62.6 °F 88% 29.86 in 10.0 mi Calm Calm - N/A   Mostly Cloudy
4:53 AM 66.9 °F 63.0 °F 87% 29.83 in 10.0 mi Calm Calm - N/A   Partly Cloudy
5:53 AM 66.0 °F 63.0 °F 90% 29.82 in 10.0 mi NNE 3.5 mph - N/A   Mostly Cloudy
6:39 AM 66.2 °F 64.4 °F 94% 29.85 in 10.0 mi Calm Calm - N/A   Overcast
6:53 AM 66.0 °F 64.0 °F 93% 29.83 in 9.0 mi ENE 3.5 mph - N/A   Overcast
7:53 AM 66.9 °F 64.0 °F 90% 29.83 in 8.0 mi East 4.6 mph - N/A   Overcast
8:53 AM 66.9 °F 64.0 °F 90% 29.82 in 7.0 mi Calm Calm - N/A   Overcast
9:44 AM 68.0 °F 64.4 °F 88% 29.84 in 9.0 mi Calm Calm - N/A   Overcast
9:53 AM 68.0 °F 64.9 °F 90% 29.82 in 5.0 mi SW 4.6 mph - 0.01 in Rain Light Rain
9:58 AM 68.0 °F 64.4 °F 88% 29.84 in 1.8 mi SW 6.9 mph - 0.05 in Rain Heavy Rain
10:07 AM 66.2 °F 64.4 °F 94% 29.85 in 0.5 mi WSW 10.4 mph 16.1 mph 0.23 in Fog , Rain Heavy Rain
10:14 AM 64.4 °F 60.8 °F 88% 29.86 in 0.8 mi WNW 6.9 mph - 0.34 in Rain , Thunderstorm Heavy Thunderstorms and Rain
10:29 AM 64.4 °F 62.6 °F 94% 29.84 in 1.0 mi Calm Calm - 0.51 in Rain Heavy Rain
10:35 AM 66.2 °F 64.4 °F 94% 29.84 in 2.0 mi Calm Calm - 0.53 in Rain , Thunderstorm Rain
10:46 AM 66.2 °F 64.4 °F 94% 29.85 in 3.0 mi Calm Calm - 0.55 in Rain , Thunderstorm Rain
10:53 AM 66.9 °F 64.9 °F 93% 29.83 in 2.5 mi Calm Calm - 0.56 in Rain Rain
11:00 AM 66.2 °F 64.4 °F 94% 29.84 in 6.0 mi Calm Calm - 0.00 in Rain Light Rain
11:53 AM 68.0 °F 64.0 °F 87% 29.79 in 10.0 mi WNW 3.5 mph - 0.02 in Rain Light Rain
12:41 PM 69.8 °F 66.2 °F 88% 29.80 in 10.0 mi WNW 5.8 mph - 0.00 in   Scattered Clouds
12:53 PM 70.0 °F 66.0 °F 87% 29.78 in 10.0 mi NW 8.1 mph - 0.00 in   Mostly Cloudy
1:06 PM 69.8 °F 66.2 °F 88% 29.81 in 10.0 mi West 6.9 mph - N/A   Mostly Cloudy
1:13 PM 69.8 °F 64.4 °F 83% 29.80 in 10.0 mi West 8.1 mph - N/A   Overcast
1:23 PM 69.8 °F 64.4 °F 83% 29.80 in 10.0 mi West 6.9 mph - N/A   Overcast
1:53 PM 69.1 °F 64.9 °F 87% 29.78 in 6.0 mi North 10.4 mph 16.1 mph 0.02 in Rain Light Rain
2:05 PM 66.2 °F 62.6 °F 88% 29.79 in 10.0 mi North 9.2 mph - 0.01 in Rain Light Rain
2:32 PM 68.0 °F 62.6 °F 83% 29.79 in 10.0 mi North 10.4 mph - 0.01 in Rain Light Rain
2:53 PM 68.0 °F 62.1 °F 81% 29.76 in 10.0 mi North 8.1 mph - 0.01 in   Overcast
3:53 PM 70.0 °F 61.0 °F 73% 29.73 in 10.0 mi ENE 5.8 mph - 0.00 in   Mostly Cloudy
4:27 PM 69.8 °F 60.8 °F 73% 29.75 in 10.0 mi North 11.5 mph - N/A   Overcast
4:46 PM 69.8 °F 59.0 °F 68% 29.75 in 10.0 mi North 6.9 mph - N/A   Overcast
4:53 PM 69.1 °F 57.9 °F 68% 29.73 in 10.0 mi North 11.5 mph - N/A   Overcast
5:53 PM 68.0 °F 57.9 °F 70% 29.73 in 10.0 mi North 9.2 mph - N/A   Overcast
6:53 PM 64.0 °F 52.0 °F 65% 29.74 in 10.0 mi North 10.4 mph - 0.00 in   Overcast
7:53 PM 66.0 °F 50.0 °F 56% 29.76 in 10.0 mi North 9.2 mph - N/A   Overcast
8:53 PM 63.0 °F 50.0 °F 63% 29.78 in 10.0 mi NNW 4.6 mph - N/A   Clear
9:53 PM 62.1 °F 48.9 °F 62% 29.81 in 10.0 mi Calm Calm - N/A   Clear
10:53 PM 61.0 °F 48.0 °F 62% 29.83 in 10.0 mi Calm Calm - N/A   Clear